Location: ?????
(42.2640°N, 43.4211°E)
Time: 14:15:05
(UTC+00:00)

CZ-2C R/B - Pass Details

Date: 07 August 2020
Orbit: 501 x 568 km, 97.7° (Epoch: 19 September)

Event Time Altitude Azimuth Distance (km) Brightness Sun altitude
Rises 00:10:32 0° 19° (NNE) 2,711 7.5 -18.4°
Reaches altitude 10° 00:12:45 10° 26° (NNE) 1,802 6.5 -18.2°
Maximum altitude 00:16:29 43° 99° (E) 749 3.7 -17.7°
Enters shadow 00:19:08 17° 166° (SSE) 1,385 4.6 -17.3°
